Ottumwa, IA

3:23 AM CDT on June 26, 2017 (GMT -0500)
Ottumwa Industrial

Weather History for KOTM - October, 2010

Change the Weather History Date:

Monday, October 4, 2010

  Actual Average Record
Temperature  
Mean Temperature 49 °F 57 °F  
Max Temperature 63 °F 68 °F 96 °F (1938)
Min Temperature 34 °F 45 °F 23 °F (1935)
Degree Days  
Heating Degree Days 16 9  
Month to date heating degree days 55 34  
Since 1 July heating degree days 140 155  
Cooling Degree Days 0 1  
Month to date cooling degree days 0 4  
Year to date cooling degree days 1098 931  
Moisture  
Dew Point 36 °F    
Average Humidity 68    
Maximum Humidity 100    
Minimum Humidity 36    
Precipitation  
Precipitation 0.00 in 0.10 in 2.04 in (1959)
Month to date precipitation T 0.40  
Year to date precipitation 49.29 30.89  
Sea Level Pressure  
Sea Level Pressure 30.39 in    
Wind  
Wind Speed 4 mph (SSE)    
Max Wind Speed 8 mph    
Max Gust Speed 12 mph    
Visibility 9 miles    
Events      
T = Trace of Precipitation, MM = Missing Value Source: NWS Daily Summary

Daily Weather History Graph

Daily Weather History Graph

Search for Another Location

Airport or City:

Trip Planner

Search our weather history database for the weather conditions in past years. The results will help you decide how hot, cold, wet, or windy it might be!

Date:

Astronomy

Oct. 04, 2010 Rise Set
Actual Time 7:09 AM CDT 6:46 PM CDT
Civil Twilight 6:42 AM CDT 7:14 PM CDT
Nautical Twilight 6:10 AM CDT 7:46 PM CDT
Astronomical Twilight 5:38 AM CDT 8:18 PM CDT
Moon 3:16 AM CDT (10/4) 4:47 PM CDT (10/4)
Length of Visible Light 12h 32m
Length of Day
11h 37m
Waning Crescent, 14% of the Moon is Illuminated
Oct 4
Waning Crescent
Oct 7
New
Oct 14
First Quarter
Oct 22
Full
Oct 30
Last Quarter

Hourly Weather History & Observations

Time (CDT) Temp. Windchill Dew Point Humidity Pressure Visibility Wind Dir Wind Speed Gust Speed Precip Events Conditions
12:53 AM 39.0 °F 36.8 °F 35.1 °F 86% 30.39 in 10.0 mi ESE 3.5 mph - N/A   Clear
1:53 AM 37.9 °F - 33.1 °F 83% 30.39 in 10.0 mi Calm Calm - N/A   Clear
2:53 AM 37.0 °F - 34.0 °F 89% 30.39 in 10.0 mi Calm Calm - N/A   Clear
3:53 AM 36.0 °F - 34.0 °F 93% 30.39 in 7.0 mi Calm Calm - N/A   Clear
4:53 AM 35.1 °F 32.2 °F 33.1 °F 92% 30.40 in 10.0 mi ESE 3.5 mph - N/A   Clear
5:53 AM 34.0 °F - 33.1 °F 96% 30.41 in 10.0 mi Calm Calm - N/A   Clear
6:53 AM 37.0 °F - 36.0 °F 96% 30.43 in 7.0 mi Calm Calm - N/A   Clear
7:53 AM 37.0 °F 33.3 °F 34.0 °F 89% 30.44 in 10.0 mi East 4.6 mph - N/A   Clear
8:53 AM 46.9 °F - 39.9 °F 77% 30.44 in 10.0 mi South 5.8 mph - N/A   Clear
9:53 AM 51.1 °F - 37.9 °F 61% 30.45 in 10.0 mi South 6.9 mph - N/A   Clear
10:53 AM 54.0 °F - 37.9 °F 55% 30.45 in 10.0 mi SSW 5.8 mph - N/A   Clear
11:53 AM 57.0 °F - 36.0 °F 45% 30.44 in 8.0 mi Variable 3.5 mph - N/A   Clear
12:53 PM 59.0 °F - 35.1 °F 41% 30.42 in 10.0 mi Variable 4.6 mph - N/A   Clear
1:53 PM 61.0 °F - 35.1 °F 38% 30.39 in 10.0 mi SSE 5.8 mph - N/A   Clear
2:53 PM 61.0 °F - 34.0 °F 36% 30.38 in 10.0 mi Calm Calm - N/A   Clear
3:53 PM 62.1 °F - 36.0 °F 38% 30.35 in 10.0 mi SSE 6.9 mph - N/A   Clear
4:53 PM 62.1 °F - 35.1 °F 37% 30.35 in 10.0 mi South 5.8 mph - N/A   Clear
5:53 PM 61.0 °F - 35.1 °F 38% 30.33 in 10.0 mi SSE 4.6 mph - N/A   Clear
6:53 PM 52.0 °F - 39.0 °F 61% 30.33 in 4.0 mi SE 3.5 mph - N/A   Haze
7:53 PM 46.0 °F 43.9 °F 39.0 °F 76% 30.35 in 10.0 mi SE 4.6 mph - N/A   Clear
8:53 PM 46.9 °F - 37.9 °F 71% 30.35 in 10.0 mi SSE 4.6 mph - N/A   Clear
9:53 PM 44.1 °F 41.5 °F 37.0 °F 76% 30.35 in 10.0 mi SSE 4.6 mph - N/A   Clear
10:53 PM 46.0 °F 43.9 °F 37.0 °F 71% 30.35 in 10.0 mi South 4.6 mph - N/A   Clear
11:53 PM 46.0 °F 43.9 °F 37.0 °F 71% 30.35 in 10.0 mi South 4.6 mph - N/A   Clear